Location: McMath-Hulbert Observatory
(42.6964°N, 83.3187°W)
Time: 08:01:40
(UTC-04:00)

Daily predictions for brighter satellites

Satellite Brightness Start Highest point End
(mag) Time Altitude Azimuth Time Altitude Azimuth Time Altitude Azimuth
BREEZE-M DEB (TANK) 3.0 20:43:00 10° WNW 20:45:48 78° SSW 20:55:57 10° SE
ALOS 4.0 20:49:53 10° SSW 20:54:09 35° W 20:58:27 10° NNW
Cosmos 839 Rocket 4.0 20:47:58 10° SSW 20:54:14 80° ESE 21:00:32 10° NE
Resurs 1-3 3.7 20:52:24 10° SSE 20:56:43 63° ENE 21:01:04 10° N
USA 186 2.1 20:53:34 10° SSE 20:56:50 50° ENE 21:00:07 10° N
Lacrosse 5 2.6 20:52:49 10° S 20:57:16 32° SE 21:01:43 10° ENE
Cosmos 1452 Rocket 3.6 20:52:36 10° SSW 20:57:53 89° WNW 21:03:13 10° NNE
Cosmos 1850 Rocket 4.4 20:53:48 10° N 20:59:00 50° ENE 21:04:07 10° SE
Cosmos 1420 Rocket 4.0 20:54:03 10° S 20:59:10 66° ESE 21:04:19 10° NNE
Atlas Centaur 2 4.0 20:54:50 10° WSW 21:02:05 32° S 21:08:36 10° SE
Meteor 2-11 Rocket 4.5 20:56:06 10° N 21:02:14 85° E 21:08:17 10° S
Cosmos 921 Rocket 4.4 21:00:06 10° SW 21:04:05 43° WNW 21:08:06 10° N
SeaSat 1 2.9 21:03:40 10° NE 21:08:18 39° ESE 21:12:53 10° S
Cosmos 1602 3.7 21:07:38 10° S 21:11:29 89° E 21:15:20 10° N
Cosmos 1607 4.3 21:05:57 10° NNW 21:12:18 56° NE 21:18:19 11° SE
Cosmos 1633 3.9 21:11:01 10° SSW 21:14:29 44° WNW 21:18:00 10° N
Okean 1 Rocket 3.8 21:13:47 10° SSE 21:17:40 32° E 21:21:34 10° NNE
Cosmos 2263 Rocket 2.3 21:12:47 10° NNW 21:18:28 62° ENE 21:23:58 11° SE
Cosmos 1300 Rocket 3.7 21:14:23 10° SSE 21:18:31 49° E 21:22:41 10° NNE
Cosmos 1025 Rocket 4.1 21:17:02 10° NNE 21:20:37 26° ENE 21:23:14 15° ESE
NOSS 2-3 (C) 3.8 21:18:02 10° SSW 21:22:39 68° ESE 21:28:03 10° NE
Cosmos 2322 Rocket 2.2 21:17:15 10° SSW 21:22:57 83° ESE 21:28:41 10° NNE
Meteor 1-11 Rocket 3.7 21:18:51 10° S 21:24:41 79° E 21:30:24 10° NNE
Cosmos 1140 Rocket 4.2 21:19:36 10° NNW 21:24:43 55° WSW 21:29:49 10° S
GPS 2-05 Rocket1 4.5 21:22:08 10° WSW 21:24:46 21° S 21:26:33 14° SSE
Cosmos 1844 Rocket 4.4 21:20:58 10° N 21:24:56 19° NE 21:28:30 11° E
YAOGAN 6 3.1 21:22:13 14° SE 21:25:00 39° ENE 21:28:18 10° N
Tiangong 1 1.0 21:22:27 10° W 21:25:11 54° SSW 21:26:47 21° SE
S3M 4.1 21:19:26 10° N 21:25:45 86° W 21:32:06 10° S
Cosmos 614 Rocket 4.4 21:20:47 10° NNW 21:25:50 62° WSW 21:30:54 10° S
SJ-11-01 4.3 21:21:31 10° SSE 21:26:07 61° ENE 21:30:42 10° N
Cosmos 1553 Rocket 4.1 21:20:46 10° N 21:26:55 78° W 21:32:59 10° S
Okean 1-7 Rocket 4.5 21:26:14 10° NNE 21:30:16 32° ENE 21:32:58 18° SE
Spot 2 Rocket 3.9 21:26:22 10° S 21:31:25 64° WSW 21:36:30 10° NNW
Cosmos 2266 Rocket 3.9 21:25:45 10° S 21:31:40 62° E 21:37:37 10° NNE
Resurs 01 Rocket 2.6 21:28:26 10° S 21:32:45 49° W 21:37:05 10° NNW
Abrixas rocket 3.9 21:31:34 10° WNW 21:34:30 29° N 21:37:17 11° ENE
USA 238 DEB 4.4 21:28:00 10° NNW 21:34:45 44° NE 21:39:58 17° ESE
USA 238 4.4 21:28:06 10° NNW 21:34:51 44° NE 21:40:03 17° ESE
SL-16 R/B 2.3 21:29:29 10° SSW 21:35:09 80° WNW 21:40:52 10° NNE
CZ-4B DEB 4.4 21:32:26 11° SSE 21:35:43 78° ENE 21:39:15 10° N
Cosmos 2315 Rocket 4.3 21:32:24 10° N 21:38:27 48° ENE 21:43:24 15° SSE
Cosmos 2151 Rocket 4.5 21:35:45 10° SSW 21:40:01 52° W 21:44:20 10° N
Cosmos 2219 Rocket 4.1 21:42:46 11° E 21:42:46 11° E 21:43:09 10° ENE
EXPRESS MD2 3.8 21:39:08 10° W 21:41:46 49° NNW 21:46:22 10° ENE
Meteor 1-23 Rocket 4.2 21:36:18 10° N 21:41:53 71° ENE 21:47:03 12° SSE
Helios 1A 3.0 21:41:24 17° SSE 21:44:34 64° ENE 21:48:48 10° N
Cosmos 2322 4.0 21:41:16 10° S 21:46:33 42° ESE 21:51:52 10° NE
ERS-1 Rocket 3.4 21:46:40 22° SE 21:49:34 44° ENE 21:54:20 10° N
ATLAS 3B R/B 2.9 21:43:06 10° NNW 21:49:46 57° NE 21:53:56 23° ESE
Cosmos 1500 4.1 21:52:07 28° ESE 21:52:31 28° E 21:55:53 10° NNE
Meteor 1-29 3.3 21:49:53 10° NNE 21:53:09 41° E 21:54:00 34° SE
Cosmos 2360 Rocket 2.1 21:50:04 10° S 21:55:37 62° ESE 22:01:11 10° NNE
COSMOS 2428 3.5 21:55:48 24° SE 21:57:35 29° ESE 22:02:25 10° NE
Cosmos 1939 Rocket 3.5 21:53:56 10° S 21:57:49 53° W 22:01:41 10° NNW
Cosmos 1536 3.5 21:55:08 10° SSW 21:59:08 55° W 22:03:09 10° N
Envisat 4.1 21:55:57 10° S 22:00:47 43° W 22:05:38 10° NNW
NOSS 2-3 (D) 4.5 21:57:55 10° SW 22:02:34 61° NW 22:08:04 10° NNE
Meteor 1-5 Rocket 4.3 22:03:46 10° SSW 22:09:05 74° WNW 22:14:24 10° N
Cosmos 1892 Rocket 4.1 22:05:32 10° N 22:09:41 38° ENE 22:10:26 35° E
H-2A R/B 2.8 22:08:23 28° E 22:09:45 33° ENE 22:14:10 10° N
Cosmos 2333 Rocket 4.0 22:13:04 15° ENE 22:13:04 15° ENE 22:14:37 10° ENE
Cosmos 1238 Rocket 4.2 22:06:11 10° N 22:12:47 54° ENE 22:15:42 31° SE
SAR-Lupe-4 3.4 22:12:33 51° SE 22:13:20 74° ENE 22:16:56 10° N
NOAA 11 4.1 22:12:03 25° SSE 22:15:24 85° ENE 22:20:56 10° NNW
CZ-4B DEB 2.6 22:15:44 63° SW 22:15:57 67° W 22:18:49 10° NNW
Cosmos 1302 Rocket 4.1 22:19:33 30° SSE 22:21:55 53° ESE 22:27:03 10° NNE
Cosmos 1544 Rocket 4.0 22:24:22 43° E 22:24:22 43° E 22:28:35 10° NNE
Cosmos 1486 Rocket 4.1 22:19:34 10° NNW 22:24:45 58° ENE 22:26:11 43° ESE
MetOp-A 4.0 22:24:43 34° SSE 22:27:10 87° ENE 22:32:34 10° NNW
Aureole 3 Rocket 4.3 22:18:55 10° N 22:27:22 67° ENE 22:30:15 35° SSE
Cosmos 2237 Rocket 4.3 22:30:37 11° ENE 22:30:37 11° ENE 22:30:59 10° ENE
Cosmos 405 3.3 22:28:31 52° NE 22:28:31 52° NE 22:31:29 10° NNE
ATLAS 2AS CENTAUR R/B 3.4 22:21:23 10° SW 22:29:06 69° NW 22:37:16 10° NNE
Helios 1B rocket 3.2 22:25:50 10° N 22:29:50 52° WNW 22:33:49 10° SSW
SAR-Lupe-1 4.0 22:29:54 72° SSW 22:30:12 81° WSW 22:33:48 10° NNW
Cosmos 1110 Rocket 4.3 22:25:34 10° SSW 22:30:41 65° WNW 22:35:52 10° NNE
BREEZE M DEB (TANK) 2.4 22:26:48 10° SW 22:33:38 62° SSE 22:33:38 62° SSE
SPOT 5 2.8 22:33:36 52° SE 22:34:31 65° ENE 22:39:08 10° N
Cosmos 1241 Rocket 4.5 22:28:25 10° SSW 22:34:50 61° ESE 22:41:13 10° NE
Cosmos 1455 Rocket 3.3 22:37:04 50° ENE 22:37:04 50° ENE 22:41:05 10° NNE
CENTAUR R/B 4.4 22:32:01 10° NNW 22:38:25 28° NNE 22:43:20 16° E
Cosmos 1066 Rocket 4.0 22:34:22 10° N 22:39:49 75° E 22:41:15 50° SSE
NOSS 3-4 (A) 4.3 22:41:26 31° E 22:41:26 31° E 22:45:38 10° NE
NOSS 3-4 (C) 4.3 22:41:38 30° E 22:41:38 30° E 22:45:44 10° NE
Lacrosse 5 2.7 22:35:08 10° WSW 22:40:03 50° NW 22:45:00 10° NE
SeaSat 1 4.3 22:41:23 10° N 22:45:41 31° NW 22:49:58 10° WSW
SL-8 R/B 3.5 22:43:02 10° WNW 22:47:51 84° SSW 22:48:14 75° SE
SL-08 RB Rocket 3.6 22:49:38 71° S 22:50:07 86° WSW 22:54:42 10° NNW
Atlas Centaur 2 4.2 22:45:11 10° WSW 22:50:37 20° SSW 22:51:30 20° SSW
ARGOS 3.2 22:49:54 44° S 22:51:36 71° WSW 22:56:59 10° NNW
Nadezhda 1 Rocket 4.1 22:45:39 10° N 22:51:55 60° E 22:53:09 51° ESE
Cosmos 1743 4.1 22:56:17 31° NNE 22:56:17 31° NNE 22:58:25 10° NNE
Landsat 7 3.9 23:01:05 61° ENE 23:01:05 61° ENE 23:05:34 10° N
Meteor 1-21 4.4 22:55:27 10° N 23:00:59 54° ENE 23:01:12 54° E
Cosmos 2263 Rocket 4.4 22:57:55 10° NW 23:01:49 19° W 23:05:41 10° SW
Cosmos 1354 Rocket 4.0 22:57:12 10° NNW 23:02:31 65° ENE 23:02:44 64° E
DMSP B5D2-2 4.2 22:58:03 10° NNE 23:02:48 57° ENE 23:02:48 57° ENE
Cosmos 2278 Rocket 2.8 23:00:57 10° NNW 23:06:19 41° ENE 23:06:39 41° ENE
Cosmos 1844 Rocket 2.6 23:03:48 10° NNW 23:09:30 78° WSW 23:10:09 68° S
CARTOSAT-1 4.4 23:10:33 41° NNE 23:10:33 41° NNE 23:13:44 10° N
SPOT 1/Viking Rocket 3.5 23:10:41 69° SSW 23:11:12 76° WSW 23:16:27 10° NNW
Abrixas rocket 4.5 23:08:19 10° WNW 23:09:53 25° NW 23:09:53 25° NW
Cosmos 1818 3.5 23:10:06 41° SW 23:12:06 82° WNW 23:17:35 10° NNE
Terra 2.2 23:16:55 54° NNE 23:16:55 54° NNE 23:20:55 10° N
Cosmos 1975 4.1 23:16:24 37° W 23:16:32 37° WNW 23:20:17 10° N
Nimbus 7 Rocket 4.3 23:12:51 10° NNE 23:18:45 88° WNW 23:19:44 64° SSW
Cosmos 1602 Rocket 4.4 23:16:45 10° N 23:19:50 45° N 23:19:50 45° N
H-2A R/B 3.6 23:23:50 29° NNE 23:23:50 29° NNE 23:26:28 10° N
BREEZE-M DEB 3.8 23:17:37 10° WNW 23:22:33 48° NW 23:22:33 48° NW
Cosmos 1503 Rocket 4.0 23:18:16 10° NNW 23:23:33 82° WNW 23:23:33 82° WNW
NOSS 3-2 (A) 3.9 23:16:16 10° NW 23:23:50 84° SW 23:25:38 59° SSE
Cosmos 2219 Rocket 2.1 23:24:26 85° NE 23:24:26 85° NE 23:29:59 10° NNE
USA 238 DEB 4.4 23:19:04 10° NW 23:25:46 46° WSW 23:27:24 40° SSW
USA 238 4.4 23:19:09 10° NW 23:25:52 46° WSW 23:27:30 40° SSW
Cosmos 724 4.1 23:20:51 10° NW 23:26:46 83° WSW 23:26:49 83° SW
SL-16 R/B 4.3 23:39:45 14° NE 23:39:45 14° NE 23:40:47 10° NE
ATLAS 3B R/B 3.8 23:34:26 10° NW 23:40:01 29° WSW 23:41:11 28° SW
Cosmos 2360 Rocket 4.5 23:35:43 10° WSW 23:40:03 22° NW 23:44:25 10° N
COSMOS 2428 3.7 23:37:40 18° WSW 23:41:37 44° WNW 23:47:05 10° NNE
Cosmos 1844 4.3 23:42:33 10° NW 23:47:46 49° W 23:47:46 49° W
H-2A R/B 3.3 23:49:01 30° W 23:49:09 30° W 23:53:32 10° NW
NOSS 0 Rocket 3.9 23:51:55 77° NNE 23:51:55 77° NNE 23:57:42 10° NNE
ATLAS CENTAUR R/B 3.9 23:52:21 10° N 23:53:18 14° N 23:53:18 14° N
